Location: ?ejeti?ky
(50.4060°N, 14.9016°E)
Time: 23:39:07
(UTC+00:00)

STARLINK-1282 - Pass Details

Date: 10 October 2020
Orbit: 549 x 551 km, 53.0° (Epoch: 27 October)

Event Time Altitude Azimuth Distance (km) Brightness Sun altitude
Exits shadow 03:34:03 34° 280° (W) 919 4.2 -16.9°
Maximum altitude 03:35:42 65° 350° (N) 609 3.8 -16.6°
Drops below altitude 10° 03:39:50 10° 73° (ENE) 1,828 7.6 -16.0°
Sets 03:42:06 0° 77° (ENE) 2,723 9.0 -15.6°
